World > North America > United States > Mississippi > Askew

Askew, MS Hourly Weather Conditions

Feedback E-mail the Weather

Quick WX

Askew, MS Weather Maps

°F °C°F °C
Askew Weather Map
UTC Time: 12/7/2022, 04:41
Your Time:

Askew, MS Regional Weather

Expires:202212070500;;430823
ASUS44 KJAN 070410
RWRMS 

MISSISSIPPI HOURLY WEATHER ROUNDUP
NATIONAL WEATHER SERVICE JACKSON MS
1000 PM CST TUE DEC 06 2022

NOTE: "FAIR: INDICATES FEW OR NO CLOUDS BELOW 12,000 FEET WITH NO
SIGNIFICANT WEATHER AND/OR OBSTRUCTIONS TO VISIBILITY.


MSZ001>002-007>008-010>013-018>021-025>028-034>036-070500-
NORTHWEST MISSISSIPPI
  
CITY           SKY/WX    TMP DP  RH WIND       PRES   REMARKS
BATESVILLE     CLOUDY    66  64  94 CALM      30.06S FOG              
CLARKSDALE     CLOUDY    70  70 100 S10       30.06R                  
CLEVELAND      CLOUDY    70  65  83 S6        30.05S                  
GREENWOOD      CLOUDY    72  64  76 S9        30.07R                  
GREENVILLE     CLOUDY    72  64  76 S8        30.05R                  
OLIVE BRANCH   CLOUDY    66  66 100 S6        30.05R                  
OXFORD         CLOUDY    64  64 100 S7        30.09S                  
TUNICA         CLOUDY    68  67  98 S8        30.05R                  
WINONA         CLOUDY    68  64  86 CALM      30.09R                  
$$


SKY/WX - Weather  TMP - Temperature  DP - Dew Point  RH - Humidity
WIND - Wind Direction/Speed PRES - Barometric Pressure VSB - Visibility
WCI - Wind Chill Index E13G22 Wind - East Wind 13 mph/Gusts of 22 mph

Trending Headlines

Trending Entertainment Headlines

Askew Radar Loop

Use the map search tool if you want to place a location marker on the radar map...

Askew Quick Facts

National Two Day Weather Forecast


E-mail the Askew Weather Forecast

Voice your opinion or tell us about page issues...